Flag for U.S.A. Weather past 2 weeks in Gloucester, Massachusetts, U.S.A.

Now
45 °F

Clear.


Feels Like: 40 °F
Forecast: 40 / 52 °F
Wind: 9 mph from North

Location: Beverly Municipal Airport

Current Time: Apr 25, 2015 at 10:12:11 PM

Latest Report: Apr 25, 2015 at 8:53 PM


Visibility: 10 mi

Pressure: 29.71 "Hg

Humidity: 45%

Dew point: 25 °F

Location of GloucesterLocation

Historic Weather in Gloucester — Graph

°F

Gloucester temperature yesterday

Maximum temperature yesterday: 50 °F (at 12:53 PM)
Minimum temperature yesterday: 35 °F (at 2:53 AM)
Average temperature yesterday: 43 °F

Past Weeks' High & Low Weather Summary

 TemperatureHumidityPressure
High70 °F (Apr 13, 1:53 PM)97% (Apr 21, 8:53 AM)30.47 "Hg (Apr 21, 8:53 AM)
Low32 °F (Apr 16, 5:53 AM)15% (Apr 15, 2:04 PM)29.49 "Hg (Apr 22, 11:53 PM)
Average51 °F54%29.94 "Hg
* Reported Apr 10 8:53 PM — Apr 25 8:53 PM, Gloucester, Weather by CustomWeather, © 2015

Note: Actual official high and low records may vary slightly from our data, if they occured in-between our weather recording intervals... More about our weather records

Advertising

Gloucester weather history for previous 24 hours

 ConditionsComfort  
Time TempWeatherWind HumidityBarometerVisibility
8:53 PM
Sat, Apr 25
45 °FClear.9 mph45%29.71 "Hg10 mi
7:53 PM48 °FOvercast.9 mph43%29.70 "Hg10 mi
6:53 PM46 °FOvercast.3 mph58%29.68 "Hg10 mi
5:53 PM52 °FMostly cloudy.6 mph37%29.67 "Hg10 mi
4:53 PM53 °FOvercast.13 mph34%29.65 "Hg10 mi
3:53 PM54 °FOvercast.15 mph33%29.66 "Hg10 mi
2:53 PM53 °FPartly sunny.14 mph34%29.66 "Hg10 mi
1:53 PM54 °FPartly sunny.12 mph31%29.67 "Hg10 mi
12:53 PM53 °FPartly sunny.15 mph34%29.68 "Hg10 mi
11:53 AM51 °FScattered clouds.14 mph36%29.70 "Hg10 mi
10:53 AM48 °FPassing clouds.17 mph41%29.72 "Hg10 mi
9:53 AM46 °FScattered clouds.13 mph42%29.73 "Hg10 mi
8:53 AM42 °FOvercast.15 mph47%29.74 "Hg10 mi
7:53 AM38 °FPassing clouds.10 mph53%29.75 "Hg10 mi
6:53 AM37 °FSunny.8 mph54%29.75 "Hg10 mi
5:53 AM35 °FClear.7 mph56%29.73 "Hg10 mi
4:53 AM35 °FClear.8 mph56%29.73 "Hg10 mi
3:53 AM36 °FClear.9 mph54%29.73 "Hg10 mi
2:53 AM36 °FClear.5 mph54%29.74 "Hg10 mi
1:53 AM38 °FClear.9 mph51%29.74 "Hg10 mi
12:53 AM39 °FClear.9 mph48%29.75 "Hg10 mi
11:53 PM
Fri, Apr 24
40 °FClear.12 mph47%29.76 "Hg10 mi
10:53 PM40 °FPassing clouds.18 mph47%29.76 "Hg10 mi
Weather by CustomWeather, © 2015

See weather overviewHow to use our weather pages